Wind_Speed
5 6 6 6 6 6 7 8 9 9 9 9 9 8 7 5 4 4 3 2 2 2 3 3 4 4 4 4 4 4 3 3 2 2 3 3 4 4 4 4 4 4 5
5 6 6 6 6 6 7 8 9 9 10 9 9 8 7 6 5 4 3 1 0 0 1 2 2 2 3 3 3 3 3 2 2 2 2 2 3 3 4 4 4 4 4
5 6 6 7 7 7 8 9 10 10 10 10 9 9 8 7 7 6 4 3 2 2 2 1 1 1 2 2 2 2 2 2 1 1 1 1 2 2 2 3 3 2 3
4 5 6 7 8 8 9 10 10 11 11 11 10 9 9 9 8 8 6 5 4 4 3 3 3 2 2 2 1 2 2 2 1 1 1 1 1 1 1 2 2 2 2
5 5 5 6 7 8 9 10 11 11 12 11 11 11 11 10 9 9 8 7 6 6 5 5 4 4 3 3 2 2 2 2 2 2 2 2 1 1 1 1 1 1 1
6 5 6 6 7 9 9 11 12 12 12 13 13 13 12 12 11 10 10 9 8 8 7 7 6 6 5 5 4 4 3 3 3 3 3 3 3 2 2 2 1 1 1
7 7 7 7 8 9 10 11 12 12 13 13 14 13 13 13 13 12 12 11 10 10 9 9 8 8 7 7 6 5 5 4 4 5 5 5 5 4 4 3 3 2 2
7 8 8 8 9 9 10 11 12 13 13 14 14 14 14 14 13 13 13 13 12 12 11 11 11 10 9 8 8 7 7 6 6 6 6 6 6 6 5 5 4 3 3
8 9 9 9 10 10 11 12 12 13 13 13 14 15 15 14 14 14 14 14 14 14 13 13 12 12 11 10 9 9 8 8 8 8 8 8 8 7 7 7 6 5 5
11 10 10 10 11 11 12 12 13 14 15 14 15 15 15 16 15 15 16 16 15 15 15 15 14 14 13 12 11 11 10 10 10 10 10 10 9 9 9 9 8 7 6
12 12 12 12 13 13 13 13 14 15 15 15 16 17 17 17 17 17 17 16 16 16 16 16 16 16 15 14 14 13 13 12 12 12 12 11 11 11 10 10 9 9 8
14 14 14 14 13 14 15 15 16 16 16 17 17 18 18 19 18 18 18 17 17 17 17 17 17 17 17 16 16 15 15 15 15 14 14 14 13 12 12 12 11 10 10
16 16 16 15 15 15 16 17 18 19 19 19 19 20 20 19 20 20 19 19 19 19 19 18 18 18 18 18 18 17 17 17 17 17 16 15 15 14 14 13 13 13 12
19 18 17 17 17 17 17 18 18 19 20 21 21 22 22 21 21 21 21 21 21 21 21 21 21 20 20 20 19 19 19 19 19 18 18 17 17 17 16 15 15 15 14
20 20 20 19 18 18 18 19 19 20 20 22 24 24 23 22 22 23 23 23 22 22 22 22 22 22 21 21 21 21 21 21 21 20 20 20 19 19 19 18 17 17 16
21 22 21 20 20 20 20 20 21 21 22 22 24 25 25 25 24 25 25 25 24 24 24 24 24 23 23 22 22 22 22 22 22 22 22 21 21 21 21 20 20 19 19
22 22 21 21 21 20 21 21 22 23 23 24 24 25 26 27 27 26 26 26 26 26 26 26 26 25 24 24 24 24 23 23 23 24 24 23 23 22 22 22 22 21 20
22 22 22 22 21 21 21 22 22 23 24 25 26 27 26 26 26 27 27 27 28 27 28 28 28 27 26 25 25 25 24 25 25 25 25 25 25 24 25 24 24 23 23
22 23 23 22 22 22 23 23 24 24 25 26 27 27 28 27 26 27 28 28 29 29 29 30 29 29 28 28 27 26 26 26 26 26 26 26 26 26 27 27 25 25 25
23 23 23 23 23 24 24 24 25 25 25 26 27 28 29 28 27 28 29 30 30 29 30 30 30 30 30 29 28 27 27 28 27 27 27 27 27 27 28 27 26 26 26
23 23 24 24 24 24 25 25 25 26 26 27 27 28 29 29 28 28 28 29 31 31 31 32 31 31 30 30 30 29 28 28 28 28 28 28 29 28 29 29 29 28 28
22 23 24 25 26 26 26 26 26 27 27 28 28 29 28 28 29 29 29 29 30 31 32 33 33 32 31 31 31 31 30 30 29 29 30 30 31 31 32 32 31 30 30
22 22 23 24 26 26 26 26 26 27 27 28 29 29 29 29 29 29 30 31 31 31 31 32 32 32 32 31 32 31 31 30 31 31 31 31 32 32 32 34 34 33 33
22 23 24 24 25 25 26 26 26 27 28 28 29 29 29 30 30 31 31 31 32 32 32 32 32 32 32 32 32 33 32 31 31 31 32 33 32 33 33 34 35 35 35
23 23 24 24 25 26 26 27 27 27 28 28 29 28 28 29 30 31 31 32 32 32 33 33 33 32 31 32 32 32 32 32 31 31 31 32 33 33 34 34 35 36 37
24 24 25 25 25 26 26 27 27 27 28 28 28 28 28 29 30 30 31 32 32 32 32 32 31 31 31 31 32 32 31 31 32 31 31 33 33 34 35 36 36 37 38
Wind_Direction
189 192 197 196 196 201 211 216 220 223 224 221 215 210 207 195 185 175 152 125 94 71 55 44 33 25 22 21 16 11 7 10 18 24 35 38 35 33 33 33 30 27 26
202 204 208 208 208 210 217 223 228 228 227 228 228 221 217 212 210 209 196 183 163 47 19 22 17 9 12 15 9 7 2 4 4 13 31 32 29 30 35 34 28 27 26
209 211 216 216 219 219 223 228 232 232 231 233 234 231 228 224 225 229 226 230 239 255 264 284 301 318 342 352 348 349 345 344 342 351 21 19 17 23 34 29 21 24 20
223 225 226 223 226 228 227 229 231 232 235 236 236 236 235 234 235 237 238 243 245 251 258 266 261 262 283 298 297 309 318 316 302 290 311 327 349 8 21 14 5 4 4
246 246 240 234 232 235 236 234 234 234 233 236 237 239 242 240 241 243 243 244 247 254 257 258 255 257 265 271 269 277 289 290 268 258 264 262 266 278 300 327 340 334 338
259 256 250 245 243 241 241 237 235 237 236 237 239 242 243 243 244 244 244 243 247 250 250 252 255 258 260 262 259 263 270 268 260 255 252 250 251 254 256 265 263 247 251
265 267 258 253 252 247 245 241 238 238 240 243 242 243 243 243 242 243 242 243 245 247 248 248 250 255 256 256 255 255 259 256 255 252 249 250 248 246 249 252 252 245 239
275 277 266 256 252 250 246 242 241 238 243 245 243 243 244 242 242 242 242 243 244 246 249 249 249 252 251 250 250 251 253 251 248 249 249 249 247 246 248 250 249 251 249
284 281 270 264 257 252 247 247 245 241 244 246 245 243 243 243 245 244 243 243 243 245 247 248 249 249 249 247 247 248 249 247 246 247 246 245 243 244 247 247 248 253 257
282 281 276 272 264 259 255 254 250 246 247 248 249 246 245 247 246 246 246 245 245 245 245 246 247 247 247 246 247 246 246 245 244 245 245 243 242 243 245 248 247 251 261
278 277 275 274 268 265 264 261 257 252 250 250 249 248 248 248 248 247 248 247 247 246 246 247 248 246 246 246 246 247 245 243 244 245 246 244 244 245 247 249 249 251 258
277 275 273 270 270 269 266 262 261 256 252 251 251 249 250 251 250 249 248 249 249 248 247 247 248 247 246 246 246 246 246 244 245 246 246 245 245 246 248 250 250 251 255
277 277 275 271 270 266 263 262 261 258 255 252 251 249 249 253 254 253 252 251 251 251 250 249 248 247 247 247 246 246 247 246 245 248 247 246 246 247 249 250 250 251 253
278 277 277 272 268 263 260 259 260 258 255 253 251 249 250 253 255 254 253 252 253 253 252 251 249 247 248 249 246 246 248 247 247 248 248 248 249 248 250 251 250 252 253
275 275 275 272 265 260 260 258 259 257 257 255 251 250 252 253 253 253 251 251 253 254 254 255 251 251 252 251 250 249 249 249 249 248 249 249 250 249 248 251 252 252 255
273 274 272 268 264 262 260 259 259 260 259 257 254 253 253 255 253 253 253 252 252 254 255 255 255 255 253 252 252 251 251 249 248 250 250 250 249 249 249 250 253 254 256
274 274 272 269 267 266 264 262 262 262 258 255 255 254 254 255 254 253 254 254 252 254 255 256 256 254 254 252 253 254 254 251 250 250 252 252 251 251 250 251 253 255 257
273 273 271 269 269 269 267 265 265 264 261 258 257 256 258 258 257 255 254 254 254 254 255 255 254 253 254 254 253 252 253 252 251 250 251 252 253 252 252 252 253 255 257
271 272 273 271 270 269 269 267 265 265 263 261 259 259 261 260 259 260 256 255 255 254 254 254 253 253 254 254 253 252 252 251 251 251 251 252 254 254 254 253 254 257 256
271 273 273 271 269 269 269 268 266 266 264 263 261 261 261 259 258 256 258 256 254 253 252 252 253 253 253 254 254 253 253 251 249 251 252 251 251 253 253 252 253 254 254
271 272 271 270 268 269 269 270 268 266 265 264 263 262 261 259 258 259 261 259 255 253 252 252 253 252 254 254 254 254 253 251 250 252 252 249 249 249 250 249 250 252 255
272 274 274 271 269 269 269 269 268 267 266 264 264 263 261 261 259 260 260 259 257 255 253 255 252 251 253 254 254 255 253 251 252 253 253 251 249 249 249 249 250 252 253
274 274 275 273 270 268 269 269 269 268 267 265 264 263 263 262 259 259 258 257 256 255 255 253 251 252 253 253 253 253 251 252 253 253 253 250 248 247 249 250 251 253 253
275 276 277 275 274 272 270 268 268 267 266 266 265 265 266 264 263 262 261 259 254 254 253 252 251 250 251 252 252 250 249 250 252 253 251 248 248 248 249 251 252 252 255
276 277 278 276 277 274 272 270 269 268 268 266 266 267 267 265 263 262 260 259 256 254 252 252 250 250 251 253 253 251 250 249 251 252 250 247 248 251 251 253 254 254 256
278 279 279 278 279 277 274 272 271 270 269 267 266 267 266 264 262 263 263 261 259 255 252 253 252 251 251 251 251 251 251 251 251 251 250 249 249 252 253 255 256 256 257
Height
5905 5906 5905 5906 5906 5906 5907 5908 5908 5909 5909 5910 5910 5910 5910 5910 5911 5911 5911 5912 5912 5912 5912 5912 5912 5912 5912 5911 5911 5911 5911 5910 5910 5910 5910 5910 5909 5909 5909 5908 5908 5908 5907
5904 5904 5905 5905 5905 5905 5906 5906 5907 5908 5908 5908 5909 5909 5909 5909 5910 5910 5910 5911 5911 5911 5912 5911 5911 5911 5911 5911 5911 5910 5910 5910 5910 5910 5910 5910 5909 5909 5909 5909 5908 5908 5908
5902 5902 5903 5903 5904 5904 5904 5905 5906 5906 5907 5907 5907 5908 5908 5908 5909 5909 5909 5910 5910 5911 5911 5911 5911 5911 5910 5910 5910 5910 5910 5910 5910 5910 5909 5909 5909 5909 5909 5909 5908 5908 5908
5900 5900 5901 5902 5902 5902 5903 5904 5904 5905 5905 5905 5906 5906 5907 5907 5908 5908 5908 5909 5909 5910 5910 5910 5910 5910 5910 5909 5909 5909 5909 5909 5909 5909 5909 5909 5909 5909 5909 5908 5908 5908 5908
5899 5899 5899 5899 5900 5901 5901 5902 5902 5903 5903 5903 5904 5904 5905 5906 5906 5907 5907 5908 5908 5908 5908 5909 5908 5908 5908 5908 5908 5908 5908 5908 5908 5908 5908 5908 5908 5908 5908 5908 5908 5908 5908
5896 5896 5897 5897 5898 5898 5899 5899 5900 5900 5901 5901 5902 5902 5903 5904 5904 5905 5905 5906 5906 5907 5907 5907 5907 5907 5907 5907 5907 5907 5907 5907 5907 5907 5907 5908 5908 5908 5908 5908 5908 5908 5908
5894 5894 5895 5895 5895 5896 5896 5896 5897 5898 5898 5899 5899 5900 5901 5901 5902 5903 5903 5904 5904 5904 5905 5905 5905 5905 5905 5905 5905 5905 5905 5905 5906 5906 5906 5907 5907 5907 5908 5908 5907 5907 5907
5892 5892 5892 5892 5893 5893 5894 5894 5894 5895 5895 5896 5896 5897 5898 5898 5899 5900 5900 5901 5901 5902 5902 5903 5903 5903 5903 5903 5903 5903 5904 5904 5904 5905 5905 5905 5906 5906 5907 5907 5907 5907 5907
5890 5890 5890 5890 5890 5890 5891 5891 5892 5892 5892 5893 5893 5894 5895 5895 5896 5897 5897 5898 5898 5899 5900 5900 5900 5900 5901 5901 5901 5901 5902 5902 5902 5903 5903 5904 5904 5905 5905 5905 5905 5906 5906
5888 5888 5887 5887 5888 5888 5888 5888 5889 5889 5889 5890 5890 5891 5892 5892 5892 5893 5894 5894 5895 5896 5896 5897 5897 5898 5898 5898 5899 5899 5899 5900 5900 5901 5901 5902 5902 5903 5903 5904 5904 5904 5904
5885 5885 5885 5885 5885 5885 5885 5885 5886 5886 5886 5886 5886 5887 5888 5888 5889 5889 5890 5891 5892 5892 5893 5893 5894 5894 5895 5895 5896 5896 5897 5897 5898 5898 5899 5900 5900 5901 5901 5902 5902 5902 5902
5882 5882 5882 5882 5881 5881 5882 5882 5882 5882 5882 5882 5883 5883 5883 5884 5885 5885 5886 5887 5888 5888 5889 5890 5890 5891 5891 5892 5892 5893 5893 5894 5895 5895 5896 5897 5898 5898 5899 5899 5900 5900 5900
5878 5878 5878 5878 5878 5878 5878 5878 5878 5878 5878 5878 5879 5879 5879 5880 5880 5881 5882 5883 5883 5884 5885 5885 5886 5887 5887 5888 5888 5889 5890 5891 5891 5892 5893 5894 5895 5895 5896 5896 5897 5898 5898
5874 5874 5874 5874 5874 5874 5874 5874 5874 5874 5874 5874 5874 5874 5875 5876 5876 5877 5878 5879 5879 5880 5880 5881 5881 5882 5883 5884 5884 5885 5886 5887 5887 5888 5889 5891 5891 5892 5893 5893 5894 5894 5895
5870 5869 5869 5869 5869 5869 5869 5869 5869 5869 5869 5869 5868 5869 5870 5871 5872 5872 5873 5874 5874 5875 5876 5876 5877 5878 5879 5879 5880 5881 5882 5882 5883 5884 5885 5886 5887 5888 5889 5890 5890 5891 5891
5865 5864 5864 5864 5864 5864 5864 5864 5864 5864 5864 5864 5863 5864 5865 5866 5866 5867 5868 5869 5869 5870 5871 5871 5872 5873 5874 5875 5876 5876 5877 5878 5879 5880 5881 5881 5882 5883 5885 5886 5886 5887 5887
5860 5860 5859 5859 5859 5859 5859 5859 5859 5859 5858 5858 5858 5859 5859 5860 5861 5861 5862 5863 5864 5865 5866 5866 5867 5868 5869 5870 5871 5871 5872 5873 5874 5875 5876 5877 5878 5879 5880 5881 5882 5882 5883
5855 5855 5854 5854 5854 5853 5854 5854 5853 5853 5852 5852 5852 5853 5853 5854 5854 5855 5856 5857 5858 5859 5860 5861 5862 5863 5863 5864 5865 5866 5866 5867 5869 5870 5871 5872 5873 5874 5875 5876 5877 5877 5878
5850 5850 5849 5849 5848 5848 5848 5847 5847 5846 5846 5846 5846 5847 5847 5848 5848 5849 5849 5850 5851 5852 5853 5855 5855 5857 5857 5858 5859 5860 5861 5862 5863 5864 5866 5866 5867 5868 5869 5870 5871 5872 5872
5845 5844 5844 5843 5843 5842 5841 5841 5841 5841 5840 5840 5840 5840 5840 5841 5841 5841 5842 5842 5844 5845 5847 5848 5849 5850 5851 5852 5853 5854 5855 5856 5857 5859 5860 5861 5862 5863 5864 5864 5865 5866 5867
5839 5838 5838 5837 5837 5836 5835 5835 5835 5834 5833 5833 5833 5833 5833 5833 5834 5834 5834 5835 5836 5838 5839 5841 5842 5843 5844 5846 5847 5848 5849 5850 5851 5853 5853 5855 5856 5857 5858 5859 5859 5860 5861
5833 5832 5831 5830 5830 5829 5829 5828 5828 5827 5827 5826 5826 5826 5826 5826 5826 5827 5828 5828 5829 5831 5832 5834 5835 5836 5838 5839 5840 5841 5843 5844 5845 5846 5847 5848 5849 5850 5851 5852 5853 5854 5854
5828 5826 5825 5824 5823 5822 5822 5821 5821 5820 5820 5819 5819 5819 5819 5819 5819 5820 5820 5821 5822 5823 5824 5826 5828 5829 5831 5832 5833 5834 5836 5837 5838 5839 5840 5841 5842 5843 5844 5845 5846 5847 5848
5822 5821 5819 5818 5817 5816 5815 5814 5814 5813 5813 5812 5812 5812 5812 5812 5812 5812 5813 5813 5814 5815 5817 5819 5820 5821 5823 5824 5825 5827 5829 5829 5831 5832 5833 5834 5835 5836 5837 5838 5839 5840 5841
5816 5814 5813 5811 5810 5809 5808 5807 5807 5806 5806 5805 5805 5805 5804 5804 5804 5805 5805 5805 5806 5807 5808 5810 5812 5813 5814 5816 5818 5819 5820 5822 5823 5824 5825 5827 5828 5829 5830 5831 5831 5832 5832
5809 5808 5807 5805 5804 5802 5801 5801 5800 5799 5799 5798 5798 5797 5797 5797 5797 5797 5797 5797 5797 5798 5800 5802 5804 5805 5807 5808 5810 5811 5813 5814 5816 5817 5818 5819 5820 5821 5822 5823 5823 5824 5824